Butte, MT

10:38 AM MST on January 20, 2018 (GMT -0700)
Mooney

Weather History for KBTM - January, 2014

Change the Weather History Date:

Sunday, January 5, 2014

  Actual Average Record
Temperature  
Mean Temperature 2 °F 19 °F  
Max Temperature 16 °F 31 °F 49 °F (1927)
Min Temperature -13 °F 7 °F -42 °F (1979)
Degree Days  
Heating Degree Days 63 46  
Month to date heating degree days 219 233  
Since 1 July heating degree days 3937 4197  
Cooling Degree Days 0 0  
Month to date cooling degree days 0 0  
Year to date cooling degree days 0 0  
Moisture  
Dew Point -4 °F    
Average Humidity 77    
Maximum Humidity 88    
Minimum Humidity 66    
Precipitation  
Precipitation 0.02 in 0.02 in 0.44 in (1968)
Month to date precipitation 0.05 0.08  
Year to date precipitation 0.05 0.08  
Sea Level Pressure  
Sea Level Pressure 30.45 in    
Wind  
Wind Speed 5 mph (NNE)    
Max Wind Speed 18 mph    
Max Gust Speed 25 mph    
Visibility 5 miles    
Events Fog , Snow    
T = Trace of Precipitation, MM = Missing Value Source: NWS Daily Summary

Daily Weather History Graph

Daily Weather History Graph

Search for Another Location

Airport or City:

Trip Planner

Search our weather history database for the weather conditions in past years. The results will help you decide how hot, cold, wet, or windy it might be!

Date:

Astronomy

Jan. 05, 2014 Rise Set
Actual Time 8:11 AM MST 4:59 PM MST
Civil Twilight 7:37 AM MST 5:33 PM MST
Nautical Twilight 6:59 AM MST 6:11 PM MST
Astronomical Twilight 6:23 AM MST 6:47 PM MST
Moon 10:38 AM MST (1/5) 10:50 PM MST (1/5)
Length of Visible Light 9h 56m
Length of Day
8h 48m
Waxing Crescent, 25% of the Moon is Illuminated
Jan 5
Waxing Crescent
Jan 7
First Quarter
Jan 15
Full
Jan 23
Last Quarter
Jan 30
New

Hourly Weather History & Observations

Time (MST) Temp. Windchill Dew Point Humidity Pressure Visibility Wind Dir Wind Speed Gust Speed Precip Events Conditions
12:53 AM 16.0 °F 10.4 °F 10.9 °F 81% 30.29 in 2.0 mi North 3.5 mph - 0.00 in Snow Light Snow
1:04 AM 15.8 °F - 10.4 °F 79% 30.10 in 2.5 mi Calm Calm - 0.00 in Snow Light Snow
1:17 AM 15.8 °F - 12.2 °F 86% 30.10 in 2.5 mi Calm Calm - 0.00 in Snow Light Snow
1:25 AM 15.8 °F - 12.2 °F 86% 30.10 in 4.0 mi Calm Calm - 0.00 in Snow Light Snow
1:41 AM 15.8 °F 10.2 °F 12.2 °F 86% 30.11 in 1.8 mi ENE 3.5 mph - 0.00 in Snow Light Snow
1:50 AM 15.8 °F - 12.2 °F 86% 30.11 in 3.0 mi Calm Calm - 0.00 in Snow Light Snow
1:53 AM 16.0 °F - 12.0 °F 84% 30.30 in 2.5 mi Calm Calm - 0.00 in Snow Light Snow
2:02 AM 15.8 °F 2.1 °F 12.2 °F 86% 30.12 in 1.2 mi NNE 12.7 mph 17.3 mph 0.00 in Snow Light Snow
2:22 AM 8.6 °F -8.9 °F 3.2 °F 79% 30.13 in 2.0 mi NNE 16.1 mph 23.0 mph 0.00 in Snow Light Snow
2:32 AM 8.6 °F -8.3 °F 1.4 °F 73% 30.15 in 1.2 mi NNE 15.0 mph 24.2 mph 0.00 in Snow Light Snow
2:44 AM 6.8 °F -10.0 °F 1.4 °F 79% 30.16 in 1.0 mi North 13.8 mph - 0.00 in Snow Light Snow
2:51 AM 6.8 °F -9.3 °F 1.4 °F 79% 30.18 in 0.8 mi North 12.7 mph - 0.00 in Snow Light Snow
2:53 AM 6.1 °F -10.9 °F 1.0 °F 80% 30.43 in 0.8 mi NNW 13.8 mph 21.9 mph 0.00 in Snow Light Snow
3:02 AM 5.0 °F -14.2 °F -0.4 °F 78% 30.19 in 0.5 mi North 17.3 mph 25.3 mph 0.00 in Snow Snow
3:42 AM 3.2 °F -14.6 °F -0.4 °F 85% 30.22 in 0.5 mi North 13.8 mph - 0.01 in Snow Snow
3:53 AM 3.0 °F -14.1 °F -0.9 °F 84% 30.49 in 0.5 mi North 12.7 mph - 0.01 in Fog , Snow Snow
4:12 AM 3.2 °F -10.3 °F -2.2 °F 78% 30.25 in 1.0 mi North 8.1 mph - 0.00 in Snow Light Snow
4:28 AM 1.4 °F -16.1 °F -4.0 °F 78% 30.26 in 1.8 mi North 12.7 mph - 0.00 in Snow Light Snow
4:42 AM 1.4 °F -13.5 °F -5.8 °F 72% 30.26 in 2.5 mi North 9.2 mph - 0.00 in Snow Light Snow
4:53 AM 1.9 °F -14.7 °F -5.1 °F 72% 30.54 in 2.5 mi North 11.5 mph - 0.00 in Snow Light Snow
5:02 AM 1.4 °F -12.5 °F -5.8 °F 72% 30.27 in 4.0 mi North 8.1 mph - 0.00 in Snow Light Snow
5:13 AM 1.4 °F -14.5 °F -7.6 °F 66% 30.28 in 6.0 mi North 10.4 mph - 0.00 in Snow Light Snow
5:53 AM 1.0 °F -14.0 °F -7.1 °F 69% 30.58 in 4.0 mi North 9.2 mph - 0.00 in Snow Light Snow
6:29 AM 1.4 °F -13.5 °F -5.8 °F 72% 30.32 in 2.5 mi NNE 9.2 mph - 0.00 in Snow Light Snow
6:42 AM 1.4 °F -12.5 °F -7.6 °F 66% 30.32 in 3.0 mi NNE 8.1 mph - 0.00 in Snow Light Snow
6:53 AM -0.0 °F -15.3 °F -8.0 °F 69% 30.61 in 5.0 mi NE 9.2 mph - 0.00 in Snow Light Snow
7:53 AM -0.9 °F -18.3 °F -9.9 °F 66% 30.66 in 10.0 mi NNE 11.5 mph - 0.00 in   Overcast
8:53 AM -0.0 °F -7.9 °F -8.0 °F 69% 30.68 in 3.0 mi NE 3.5 mph - 0.01 in Snow Light Snow
9:05 AM -0.4 °F -13.4 °F -7.6 °F 72% 30.40 in 2.5 mi NNE 6.9 mph - 0.00 in Snow Light Snow
9:16 AM -0.4 °F -10.4 °F -7.6 °F 72% 30.41 in 4.0 mi NNE 4.6 mph - 0.00 in Snow Light Snow
9:53 AM -0.0 °F -9.9 °F -8.0 °F 69% 30.72 in 6.0 mi NNE 4.6 mph - 0.00 in   Haze
10:31 AM -0.4 °F -10.4 °F -9.4 °F 66% 30.44 in 2.5 mi North 4.6 mph - 0.00 in Snow Light Snow
10:43 AM -0.4 °F -12.0 °F -9.4 °F 66% 30.45 in 3.0 mi North 5.8 mph - 0.00 in Snow Light Snow
10:53 AM 1.0 °F -10.3 °F -8.0 °F 66% 30.74 in 4.0 mi North 5.8 mph - 0.00 in Snow Light Snow
11:32 AM 1.4 °F -9.9 °F -7.6 °F 66% 30.44 in 1.2 mi NNE 5.8 mph - 0.00 in Snow Light Snow
11:44 AM 1.4 °F - -7.6 °F 66% 30.43 in 3.0 mi Calm Calm - 0.00 in Snow Light Snow
11:53 AM 1.9 °F - -8.0 °F 63% 30.72 in 6.0 mi Calm Calm - 0.00 in   Haze
12:53 PM 1.0 °F - -6.0 °F 72% 30.70 in 10.0 mi Calm Calm - N/A   Overcast
1:53 PM 5.0 °F - -6.0 °F 61% 30.67 in 10.0 mi Calm Calm - N/A   Clear
2:53 PM 3.9 °F - -5.1 °F 66% 30.71 in 10.0 mi Calm Calm - N/A   Partly Cloudy
3:53 PM 5.0 °F -2.1 °F -5.1 °F 63% 30.72 in 10.0 mi WNW 3.5 mph - N/A   Clear
4:53 PM -0.0 °F - -7.1 °F 72% 30.74 in 10.0 mi Calm Calm - N/A   Clear
5:53 PM -8.0 °F -16.9 °F -13.0 °F 79% 30.78 in 10.0 mi SE 3.5 mph - N/A   Clear
6:53 PM -9.9 °F -21.5 °F -14.1 °F 82% 30.79 in 10.0 mi South 4.6 mph - N/A   Clear
7:53 PM -11.0 °F -20.4 °F -15.0 °F 83% 30.79 in 9.0 mi SE 3.5 mph - N/A   Clear
8:53 PM -9.0 °F -18.2 °F -14.1 °F 79% 30.77 in 10.0 mi SE 3.5 mph - N/A   Clear
9:53 PM -9.0 °F - -14.1 °F 79% 30.76 in 10.0 mi Calm Calm - N/A   Clear
10:53 PM -11.9 °F -21.5 °F -16.1 °F 82% 30.76 in 10.0 mi SSW 3.5 mph - N/A   Clear
11:53 PM -9.9 °F - -15.0 °F 78% 30.75 in 10.0 mi Calm Calm - N/A   Scattered Clouds